Owen Roberts, Cayman Islands

3:41 AM EST on August 24, 2017 (GMT -0500)
Roberts International

Weather History for MWCR - October, 2013

Change the Weather History Date:

Monday, October 28, 2013

  Actual Average Record
Temperature  
Mean Temperature 86 °F -  
Max Temperature 90 °F 83 °F 91 °F (1997)
Min Temperature 81 °F 75 °F 72 °F (2016)
Cooling Degree Days 20    
Growing Degree Days 36 (Base 50)    
Moisture  
Dew Point 78 °F    
Average Humidity 80    
Maximum Humidity 89    
Minimum Humidity 66    
Precipitation  
Precipitation 0.04 in - - ()
Sea Level Pressure  
Sea Level Pressure 29.97 in    
Wind  
Wind Speed 7 mph ()    
Max Wind Speed 13 mph    
Max Gust Speed -    
Visibility 5.9 miles    
Events Thunderstorm    
Averages and records for this station are not official NWS values.
T = Trace of Precipitation, MM = Missing Value Source: Averaged Metar Reports

Daily Weather History Graph

Daily Weather History Graph

Search for Another Location

Airport or City:

Trip Planner

Search our weather history database for the weather conditions in past years. The results will help you decide how hot, cold, wet, or windy it might be!

Date:

Astronomy

Oct. 28, 2013 Rise Set
Actual Time 6:24 AM EST 5:53 PM EST
Civil Twilight 6:01 AM EST 6:16 PM EST
Nautical Twilight 5:36 AM EST 6:41 PM EST
Astronomical Twilight 5:10 AM EST 7:07 PM EST
Moon 1:03 AM EST (10/28) 1:51 PM EST (10/28)
Length of Visible Light 12h 14m
Length of Day
11h 29m
Waning Crescent, 34% of the Moon is Illuminated
Oct 28
Waning Crescent
Nov 3
New
Nov 10
First Quarter
Nov 17
Full
Nov 25
Last Quarter

Hourly Weather History & Observations

Time (EST) Temp. Heat Index Dew Point Humidity Pressure Visibility Wind Dir Wind Speed Gust Speed Precip Events Conditions
6:00 AM 82.4 °F 92.4 °F 78.8 °F 89% 29.95 in 6.2 mi East 8.1 mph - N/A   Partly Cloudy
7:00 AM 82 °F - 78 °F 85% 29.96 in 6 mi East 6.9 mph - -   Scattered Clouds
7:00 AM 82.4 °F 92.4 °F 78.8 °F 89% 29.95 in 6.2 mi East 6.9 mph - N/A   Partly Cloudy
8:00 AM 84.2 °F 96.1 °F 78.8 °F 84% 29.95 in 6.2 mi East 8.1 mph - N/A   Partly Cloudy
9:00 AM 87.8 °F 104.9 °F 80.6 °F 79% 29.98 in 6.2 mi East 10.4 mph - N/A   Partly Cloudy
10:00 AM 87.8 °F 102.5 °F 78.8 °F 75% 29.98 in 6.2 mi East 12.7 mph - N/A   Partly Cloudy
11:00 AM 87.8 °F 102.5 °F 78.8 °F 75% 29.98 in 6.2 mi ESE 10.4 mph - N/A   Partly Cloudy
12:00 PM 89.6 °F 102.2 °F 77.0 °F 66% 29.98 in 6.2 mi ESE 8.1 mph - N/A   Partly Cloudy
1:00 PM 82 °F - 79 °F 87% 29.99 in 6 mi East 9.2 mph - -   Partly Cloudy
1:00 PM 89.6 °F 102.2 °F 77.0 °F 66% 29.95 in 6.2 mi ESE 9.2 mph - N/A   Scattered Clouds
2:00 PM 87.8 °F 102.5 °F 78.8 °F 75% 29.95 in 5.0 mi East 8.1 mph - N/A   Scattered Clouds
3:00 PM 86.0 °F 99.3 °F 78.8 °F 79% 29.92 in 5.6 mi East 9.2 mph - N/A   Partly Cloudy
3:51 PM 86.0 °F 99.3 °F 78.8 °F 79% 29.92 in 6.2 mi East 6.9 mph - N/A   Scattered Clouds
4:51 PM 86.0 °F 99.3 °F 78.8 °F 79% 29.95 in 6.2 mi East 6.9 mph - N/A   Scattered Clouds
5:32 PM - - - N/A% - - North - - N/A   Unknown
5:54 PM 82.4 °F 90.9 °F 77.0 °F 84% 29.95 in 5.6 mi NE 8.1 mph - N/A Thunderstorm Thunderstorm
6:30 PM - - - N/A% - 4.3 mi East 9.2 mph - N/A Thunderstorm Thunderstorm
6:54 PM 84.2 °F 94.1 °F 77.0 °F 79% 29.98 in 6.2 mi East 6.9 mph - N/A   Partly Cloudy
7:00 PM 83 °F - 77 °F 78% 29.98 in 6 mi East 6.9 mph - -   Partly Cloudy
7:54 PM 82.4 °F 90.9 °F 77.0 °F 84% 29.98 in 6.2 mi East 6.9 mph - N/A   Partly Cloudy
8:55 PM 82.4 °F 90.9 °F 77.0 °F 84% 30.01 in - East 6.9 mph - N/A   Clear
9:50 PM 82.4 °F 90.9 °F 77.0 °F 84% 30.01 in - East 6.9 mph - N/A   Clear